Orbital Elements at Epoch 2459200.5 (2020-Dec-17.0) TDB
Reference: JPL 29 (heliocentric ecliptic J2000)
Element | Value | Uncertainty (1-sigma) | Units |
e | .2286513519207437 | 4.315e-08 | |
a | 2.574882219210664 | 1.1683e-08 | au |
q | 1.986131918751461 | 1.1469e-07 | au |
i | 1.351014800939391 | 4.6796e-06 | deg |
node | 206.7663917075595 | 0.00011716 | deg |
peri | 157.5347334012247 | 0.00011753 | deg |
M | 23.80740821371788 | 7.3405e-06 | deg |
tp | 2459100.696884850473 (2020-Sep-08.19688485) | 3.1027e-05 | TDB |
period | 1509.157197259598 4.13 | 1.0272e-05 2.812e-08 | d yr |
n | .2385437386202748 | 1.6236e-09 | deg/d |
Q | 3.163632519669867 | 1.4355e-08 | au |
|
| | Orbit Determination Parameters
Additional Information
|